{"data":{"norad_id":66700,"epoch":"2026-09-20T22:33:54.688320Z","epoch_age_seconds":82908,"freshness":"FRESH","line1":"1 66700U 25276AL  26263.94021630  .00003388  00000+0  15075-3 0  9997","line2":"2 66700  97.4139 336.4991 0002331  40.1610 319.9798 15.22158283 45002","mean_motion":15.22158283,"eccentricity":0.0002331,"inclination_deg":97.4139,"raan_deg":336.4991,"arg_perigee_deg":40.161,"mean_anomaly_deg":319.9798,"bstar":0.00015075,"rev_number":4500,"period_min":94.602513817546,"perigee_km":497.72869790128,"apogee_km":500.93497387257,"semimajor_km":6877.4688358869,"source":"CELESTRAK","updated_at":"2026-09-21T09:00:16.129436Z"}}